Location: Gugi
(45.4667°N, 11.1000°E)
Time: 08:18:20
(UTC+00:00)

H-2A R/B - Pass Details

Date: 17 November 2019
Orbit: 733 x 838 km, 98.3° (Epoch: 15 December)

Event Time Altitude Azimuth Distance (km) Brightness Sun altitude
Exits shadow 18:07:12 11° 10° (N) 2,326 4.4 -25.0°
Drops below altitude 10° 18:07:29 10° 8° (N) 2,417 4.5 -25.0°
Sets 18:10:07 0° 357° (N) 3,337 5.3 -25.5°
